Regional Weather Roundup
Issued by NWS Wakefield, VA

Home | Current Version | Previous Version | Graphics & Text | Print | Product List | Glossary On
Versions: 1 2 3 4 5 6 7 8 9 10 11 12 13 14 15 16 17 18 19 20 21 22 23 24 25 26 27 28
000
ASUS41 KAKQ 272215
RWRAKQ

REGIONAL WEATHER ROUNDUP
NATIONAL WEATHER SERVICE WAKEFIELD VA
600 PM EDT FRI MAY 27 2016

Note: "fair" indicates few or no clouds below 12,000 feet with no
significant weather and/or obstructions to visibility. * = Denotes
station may not report precipitation (e.g., rain,snow,etc.),
thunder or fog.

VAZ042-051-052>054-056-272300-
NORTHERN VIRGINIA

CITY           SKY/WX    TMP DP  RH WIND       PRES   REMARKS
WASH NATIONAL  FAIR      84  70  62 S12       30.02F
DULLES         PTSUNNY   87  66  49 S9        30.02F
FORT BELVOIR   FAIR      86  71  59 SE7       30.02F
QUANTICO       PTSUNNY   81  72  74 S9        30.03F
FREDERICKSBRG* FAIR      89  67  48 S9        30.02F
STAFFORD*      FAIR      86  65  48 S9        30.06F
WARRENTON      FAIR      87  64  44 S6        30.02F
CULPEPER*      FAIR      88  69  52 S7        30.03F
MANASSAS*      SUNNY     88  68  51 S12       30.02F
LEESBURG*      FAIR      90  68  48 SW13G22   30.03S
WINCHESTER     PTSUNNY   81  64  57 W14G24    30.06R THUNDER
FRONT ROYAL*   CLOUDY    73  66  78 NW12G24   30.05R
LURAY*         FAIR      84  64  51 SW7       30.04S
$$

VAZ048-049-060>072-079>083-272300-
CENTRAL AND SOUTH CENTRAL VIRGINIA

CITY           SKY/WX    TMP DP  RH WIND       PRES   REMARKS
RICHMOND       FAIR      85  65  51 S13       30.05F
CHESTERFIELD*  FAIR      86  61  42 S12       30.07F
PETERSBURG*    FAIR      87  65  47 S8        30.06F
HANOVER        FAIR      86  63  45 S12       30.06F
TAPPAHANNOCK*  FAIR      88  62  40 SW8       30.06F
QUINTON*       FAIR      87  66  50 S5        30.06F
CHARLOTTSVILLE FAIR      85  66  53 S13       30.04F
GORDONSVILLE*  FAIR      87  68  53 S9        30.03F
ORANGE*        FAIR      88  64  45 SW10      30.05F
LOUISA*        FAIR      90  72  55 S6        30.03F HX  96
BUMPASS*       FAIR      85  68  56 S3        30.04F
FARMVILLE*     FAIR     N/A N/A N/A S7        30.04
CREWE*         FAIR      85  66  51 S7        30.06F
FORT PICKETT*  NOT AVBL
CHASE CITY*    FAIR      86  62  45 SE8       30.07F
CLARKSVILLE*   FAIR      84  66  54 S3        30.07F
SOUTH HILL*    FAIR      81  67  63 S5        30.13F
LAWRENCEVILLE* FAIR      83  68  61 S3        30.07F
EMPORIA*       FAIR      84  64  51 SE6       30.09F
$$

VAZ088>098-272300-
SOUTHEAST VIRGINIA

CITY           SKY/WX    TMP DP  RH WIND       PRES   REMARKS
NORFOLK        FAIR      83  61  47 S13       30.09F
VIRGINIA BEACH FAIR      83  60  45 S13       30.10F
NORFOLK NAVAL  FAIR      84  61  45 S9        30.10S
WEST POINT*    FAIR      85  65  50 SE7       30.08S
SALUDA*        FAIR      82  68  62 SE9       30.07F
NEWPORT NEWS   FAIR      85  65  51 S10       30.08S
LANGLEY AFB    FAIR      84  64  50 S14       30.08S
FORT EUSTIS    FAIR      85  72  64 S6        30.06F
WILLIAMSBURG*  FAIR      88  68  51 S6        30.08F
HR EXEC AP*    FAIR      84  63  48 S12       30.11S
FRANKLIN*      FAIR      85  63  48 SE10      30.08F
US460-WAKEFLD  FAIR      86  64  47 SW5       30.07F
$$

VAZ020-022-025-037-045-272300-
WEST CENTRAL AND SOUTHWEST VIRGINIA

CITY           SKY/WX    TMP DP  RH WIND       PRES   REMARKS
STAUNTON*      FAIR      84  65  54 SE10      30.08S
WAYNESBORO*    FAIR      83  64  52 SE10      30.08F
HOT SPRINGS VA CLOUDY    72  59  62 S6        30.19F
LYNCHBURG      FAIR      83  66  56 S12       30.07F
DANVILLE       FAIR      84  64  50 VRB5      30.06F
SOUTH BOSTON*  FAIR      85  64  49 S7        30.07S
MARTINSVILLE   FAIR      82  63  51 S3        30.10S
ROANOKE        FAIR      82  67  60 S9        30.08F
BLACKSBURG     FAIR      80  67  63 S7        30.15F
DUBLIN*        FAIR      82  64  55 S7        30.12F
MARION*        LGT RAIN  77  65  64 SE5       30.16S
HILLSVILLE*    FAIR      77  64  63 S3        30.14F
RICHLANDS*     FAIR      79  70  73 E6        30.12F
WISE*          CLOUDY    77  57  50 CALM      30.13S
ABINGDON*      FAIR      81  62  52 SE8       30.09F
$$

MDZ021>025-VAZ099-100-272300-
SOUTHERN MARYLAND AND THE DELMARVA PENINSULA

CITY           SKY/WX    TMP DP  RH WIND       PRES   REMARKS
PATUXENT RIVER MOSUNNY   80  65  59 SE12      30.05S
BAY BRIDGE APT SUNNY     84  70  61 S13       30.04F
LEONARDTOWN    SUNNY     82  66  57 SE9       30.06F
DOVER          SUNNY     88  71  57 S12       30.03S
GEORGETOWN     SUNNY     84  66  54 S15G21    30.07S
EASTON         SUNNY     86  73  66 S9        30.09F
CAMBRIDGE      SUNNY     81  64  57 S12G18    30.06F
SALISBURY      SUNNY     82  64  54 S12       30.08S
OCEAN CITY     SUNNY     75  60  59 SW14G22   30.11S
WALLOPS ISLAND FAIR      74  60  61 S16       30.12S
ACCOMACK*      FAIR      77  55  47 S18G25    30.11S
$$

NCZ012>017-030>032-272300-
NORTH CENTRAL AND EASTERN NORTH CAROLINA

CITY           SKY/WX    TMP DP  RH WIND       PRES   REMARKS
ROANOKE RAPIDS FAIR      82  64  54 S5        30.08F
RALEIGH        MOSUNNY   84  62  47 SW5       30.09S
ELIZABETH CITY SUNNY     81  57  43 S9        30.12S
AHOSKIE*       SUNNY     83  62  49 S9        30.09S
EDENTON*       SUNNY     82  57  42 S12       30.12S
CURRITUCK*     SUNNY     81  58  44 SE7       30.13S
KILL DEVIL HLS SUNNY     81  60  48 SE7G16    30.13S
MANTEO         NOT AVBL
CAPE HATTERAS  SUNNY     79  64  60 SE7       30.14F
TARBORO*       FAIR      86  61  43 SE9       30.09F
GOLDSBORO      MOSUNNY   84  59  42 SE10      30.08S
WASHINGTON     SUNNY     82  58  45 SE10      30.11S
GREENVILLE     SUNNY     84  61  45 SE13G18   30.11F
NEW BERN       SUNNY     81  57  43 SE8       30.12F
WILMINGTON     MOSUNNY   78  62  57 E8        30.13S
$$

VAZ048-272300-
ELSEWHERE

CITY           SKY/WX    TMP DP  RH WIND       PRES   REMARKS
HARRISBURG PA  PTSUNNY   89  67  47 CALM      29.99F
BALTIMORE      PTSUNNY   84  68  58 SE10      30.02F
ANNAPOLIS      SUNNY     79  69  71 S12       30.03F
ANDREWS AFB    FAIR      85  69  58 S12       30.03F
PHILADELPHIA   PTSUNNY   89  64  43 SW15      30.02F
HENDERSON NC   SUNNY     81  63  52 S6        30.09S
GREENSBORO     MOSUNNY   84  62  47 S12       30.08F
ROCKY MOUNT    SUNNY     85  60  42 SE8       30.08F
$$

VAZ100-272300-
MARINE

STATION/POSITION TIME  TEMP    WIND        PRES    WAVE   SWELL
                       AIR SEA DIR/SP/G            HT/PER HT/PER
                 (UTC) (F)     (DEG/KT/KT) (MB)    (FT/S) (FT/S)
BRANDYWINE LGT   2100   67     180/ 19/ 21 1017.9F
CAPE MAY NJ      2100   70 66  160/ 15/ 19 1018.0F
LEWES DE         2100   83 63  180/ 10/ 17 1018.0F
15NM E FENWICK I 2150   67 62              1019.5R   3/ 5
OCEAN-CITY-INLET 2100   66 60  210/ 17/ 21 1020.1F
WACHAPREAGUE VA  2100   76 80  190/ 15/ 19 1019.3F
THOMAS POINT MD  2200   74 68  180/ 12/ 13 1018.3F
GOOSES REEF MD   2200   72 68  160/ 16/ 19 1018.5F   2/ 4
COVE POINT MD    2100   71     190/ 18/ 21 1018.4F
SOLOMONS ISLAND  2100   77 67  120/ 12/ 13   N/A
BISHOPS HEAD MD  2100   76 78  150/ 17/ 19 1018.5S
PINEY POINT MD   2100          170/  7/  8   N/A
POTOMAC MD       2200   75 70  180/ 14/ 16 1017.2F   2/ 3
CAMBRIDGE MD     2100   84 65  150/  5/ 12 1017.2F
LEWISETTA VA     2100   85 74  200/ 11/ 13 1017.5F
RAPPAHANNOCK LGT 2100          150/ 18/ 19 1019.9S
STINGRAY PT      2200   73 70  170/ 17/ 21 1018.8F   2/ 3
YORK RVR RNG VA  2100   74     150/ 16/ 18 1018.2F
YORKTOWN VA      2100   84 67  180/  6/ 14 1018.3F
JAMESTOWN VA     2200   83 74  170/  6/ 10   N/A     0
DOMINION TERM VA 2100   81     180/  9/ 10 1018.8F
KIPTOPEKE VA     2100      70  170/ 21/ 27   N/A
CHES BAY BRIDGE  2100   79 67  140/ 15/ 18 1019.2S
CAPE HENRY VA    2100   77     150/ 15/ 21   N/A
CHESAPEAKE LGHT  2100   72     170/ 20/ 21 1020.4S
WILLOUBY STN VA  2100   83     160/ 11/ 15 1019.8F
CAPE HENRY BUOY  2112      69                N/A     2/ 3
1ST LANDING BUOY 2200   74 70  140/ 14/ 16 1019.1F   2/ 3
CAPE CHARLES BUO 2126      66                N/A     3/ 4   2/ 8
OFFSHORE WE BUOY 2121      66                N/A     2/ 8   2/ 8
64NM E OF VA BCH 2150   69 63  180/  6/  6 1020.7R   2/ 7   2/ 7
DUCK PIER NC     2100   71 65  130/ 17/ 18 1019.5F
44100 DUCK FRF   2124      68                N/A     2/ 8
44056 DUCK FRF   2111      65                N/A     2/ 8
OREGON INLET NC  2100   76 79  100/  6/  9 1020.9F
HATTERAS NC      2100   78 73  140/  7/ 10 1020.4F
DIAMOND SHLS NC  2150   77 78  130/ 12/ 12 1020.4F   2/ 4   2/ 7
CAPE C1F1C2F2C3F3C4F4C5F5C6F6C7F7C8M1C9!



USA.gov is the U.S. government's official web portal to all federal, state and local government web resources and services.